Temp
13 13 13 15 17 19 18 19 21 21 17 19 20 20 18 17 17 20 19 18 17 16 15 14 13 12 12 12 12 12 12 12 12 11 11 11 10 11 11 11 11 11 11 11
13 13 15 16 17 16 17 19 20 19 17 17 20 20 20 19 18 19 20 19 17 16 15 13 13 13 13 13 12 12 12 12 11 11 11 10 10 10 11 11 11 11 11 11
14 15 14 14 15 16 17 18 19 19 17 17 19 19 21 21 21 19 19 20 19 17 15 12 12 13 13 12 12 11 11 11 11 11 11 11 11 10 10 10 10 10 10 10
14 13 14 14 16 17 16 18 18 17 17 18 19 20 22 22 19 19 18 17 18 17 16 13 11 11 11 11 11 10 11 11 11 11 11 10 9 8 9 10 10 10 10 10
13 13 13 14 15 14 16 15 17 18 18 19 18 18 23 21 19 20 19 18 17 16 14 12 11 10 10 10 11 11 11 11 11 10 10 10 10 9 10 10 9 9 9 9
12 11 12 13 12 13 13 15 16 17 17 16 20 18 21 21 21 20 18 17 15 14 13 11 10 9 9 11 11 11 10 10 10 10 10 9 9 9 9 9 9 9 9 9
12 13 12 11 14 13 13 15 14 15 14 16 13 14 21 19 18 18 17 15 13 11 11 10 9 9 9 10 10 10 10 9 9 9 9 9 9 9 9 8 8 8 8 8
12 12 12 11 12 14 14 15 15 15 16 18 13 16 19 16 14 13 13 13 11 11 10 9 9 9 9 9 10 9 9 9 9 9 9 9 9 8 8 8 8 7 7 7
14 13 11 10 11 12 15 13 14 15 16 18 18 18 16 14 13 13 12 11 11 10 10 9 8 8 8 9 9 9 9 9 9 8 8 8 8 8 8 8 8 7 7 7
15 14 11 11 11 11 12 12 15 15 16 17 18 19 19 14 14 13 12 12 10 9 8 8 8 8 8 9 9 9 9 8 8 8 8 7 7 7 7 7 7 6 6 6
14 14 11 11 12 15 12 14 14 14 16 18 19 19 14 12 15 13 13 11 9 9 8 8 7 9 9 9 9 8 8 8 8 7 7 7 6 6 6 6 6 5 5 5
13 14 14 14 11 11 12 14 15 15 17 16 16 18 14 13 13 13 11 10 9 8 7 7 7 7 7 7 6 6 6 5 6 6 6 6 6 6 5 5 5 5 4 4
12 13 14 13 11 10 11 13 14 14 13 15 17 19 13 13 12 12 10 9 7 7 6 6 6 6 5 5 5 5 5 5 5 5 5 5 5 4 4 4 4 4 4 3
9 13 14 15 13 13 12 12 13 14 13 16 17 18 14 13 12 11 10 8 7 7 6 6 5 5 4 4 4 5 5 5 5 4 4 4 4 3 3 3 3 3 3 3
10 12 12 11 13 12 13 13 12 11 13 15 17 17 18 16 14 11 9 8 7 6 5 5 5 4 4 4 4 4 4 4 4 4 3 3 3 3 3 2 2 2 2 2
10 11 11 11 12 11 10 12 13 12 13 13 15 15 16 13 11 11 9 7 6 6 5 5 4 4 3 3 4 4 4 3 3 2 2 2 2 2 2 2 2 2 2 1
11 11 11 13 11 11 12 13 13 13 13 13 13 14 13 11 10 10 9 7 7 6 5 4 4 3 3 2 3 2 2 2 2 1 1 1 1 1 1 1 1 0 -0 -1
11 11 11 12 12 12 13 10 11 14 13 12 11 11 11 9 7 7 8 7 6 5 4 4 3 2 2 3 2 2 2 1 1 1 1 1 1 1 1 0 0 -0 -1 -1
9 11 11 11 12 14 15 10 10 11 13 11 11 11 8 6 6 5 6 6 6 5 4 3 3 2 2 1 2 1 1 -0 0 -0 0 1 1 1 0 0 -0 -1 -1 -2
7 8 10 10 10 12 12 9 9 10 11 9 9 10 8 7 9 9 5 5 5 4 3 2 1 1 1 1 1 1 0 -0 -0 1 1 1 0 -0 -1 -2 -2 -3 -4 -4
7 8 8 10 10 12 10 8 7 10 10 7 8 8 7 8 5 5 4 3 3 2 1 1 1 1 0 0 0 1 1 0 1 0 -0 -1 -1 -2 -3 -4 -4 -5 -5 -5
10 10 9 10 10 8 8 7 9 9 7 6 6 6 6 4 4 3 3 2 1 1 1 1 1 -0 0 0 0 0 0 -0 -1 -1 -2 -2 -4 -4 -5 -5 -6 -6 -6 -6
8 11 11 11 11 8 8 8 6 7 7 6 6 5 5 4 3 2 2 1 1 1 1 0 0 -0 -0 0 -0 -0 -1 -1 -2 -2 -3 -4 -5 -5 -6 -6 -7 -7 -7 -7
9 9 8 8 11 8 7 6 5 6 6 5 5 5 4 3 2 2 1 0 0 0 -0 -0 -0 -0 -1 -1 -1 -1 -2 -2 -3 -3 -4 -5 -6 -6 -7 -7 -7 -7 -7 -7
10 8 8 9 9 6 6 6 6 5 5 4 4 3 3 3 2 1 0 -1 -1 -1 -1 -0 -0 -0 -1 -1 -1 -2 -3 -3 -4 -5 -6 -6 -7 -7 -8 -8 -8 -8 -8 -8
8 9 8 9 10 8 9 6 5 4 4 3 3 2 2 2 1 0 -1 -1 -1 -1 -1 -1 -1 -1 -2 -2 -2 -3 -3 -4 -5 -5 -6 -8 -8 -8 -8 -8 -8 -8 -8 -8
Height
1504 1503 1500 1495 1491 1484 1489 1487 1480 1483 1497 1497 1494 1494 1498 1500 1501 1505 1507 1511 1513 1514 1518 1521 1523 1525 1527 1530 1531 1533 1535 1538 1539 1540 1541 1542 1542 1542 1543 1543 1543 1543 1542 1542
1505 1503 1498 1495 1493 1494 1493 1484 1485 1490 1497 1501 1491 1492 1493 1496 1499 1501 1504 1507 1509 1512 1515 1516 1519 1522 1524 1527 1530 1532 1534 1536 1537 1538 1540 1541 1541 1542 1542 1542 1542 1542 1541 1541
1498 1497 1499 1500 1498 1497 1494 1490 1485 1489 1498 1499 1494 1494 1488 1489 1493 1497 1499 1501 1505 1508 1511 1514 1516 1519 1522 1525 1528 1530 1532 1534 1536 1537 1538 1539 1540 1540 1541 1541 1541 1541 1540 1540
1498 1501 1501 1500 1495 1494 1495 1489 1490 1492 1496 1499 1492 1491 1476 1478 1488 1492 1495 1497 1501 1505 1508 1511 1513 1517 1520 1523 1525 1528 1531 1533 1534 1535 1536 1537 1538 1540 1540 1540 1540 1540 1539 1539
1503 1502 1503 1500 1495 1500 1494 1497 1493 1492 1491 1491 1495 1498 1471 1476 1485 1484 1489 1493 1498 1502 1505 1508 1511 1515 1518 1520 1524 1527 1530 1531 1532 1533 1534 1535 1537 1538 1538 1538 1538 1538 1538 1538
1504 1507 1506 1503 1505 1503 1503 1499 1497 1496 1495 1506 1484 1493 1476 1476 1476 1480 1487 1492 1497 1500 1503 1507 1511 1513 1516 1519 1522 1526 1528 1529 1531 1532 1533 1534 1535 1536 1536 1536 1536 1536 1536 1536
1503 1503 1506 1508 1502 1503 1503 1499 1508 1511 1511 1501 1508 1507 1474 1476 1481 1483 1488 1492 1497 1499 1503 1507 1510 1513 1515 1518 1521 1524 1526 1527 1529 1530 1531 1532 1533 1533 1534 1535 1535 1535 1534 1534
1504 1510 1505 1509 1505 1501 1502 1501 1498 1504 1500 1490 1509 1496 1475 1480 1485 1488 1490 1493 1497 1500 1504 1507 1510 1513 1515 1518 1520 1522 1524 1525 1527 1528 1529 1530 1531 1532 1532 1532 1532 1532 1532 1531
1498 1500 1509 1510 1508 1507 1500 1507 1501 1497 1489 1481 1482 1477 1478 1484 1487 1489 1492 1495 1498 1501 1505 1508 1510 1513 1515 1516 1518 1520 1522 1523 1525 1526 1527 1528 1528 1529 1529 1529 1530 1529 1529 1528
1497 1499 1507 1507 1508 1509 1509 1510 1502 1497 1498 1490 1479 1475 1471 1484 1485 1489 1492 1495 1500 1503 1505 1507 1509 1511 1513 1515 1517 1519 1521 1522 1523 1524 1525 1525 1526 1527 1527 1527 1527 1527 1526 1525
1500 1497 1506 1505 1502 1494 1508 1502 1502 1501 1491 1483 1473 1473 1481 1485 1482 1487 1491 1496 1500 1503 1505 1507 1508 1510 1512 1514 1516 1517 1519 1520 1521 1522 1523 1524 1524 1524 1524 1524 1524 1524 1523 1523
1500 1494 1493 1494 1502 1504 1504 1497 1495 1495 1487 1487 1488 1477 1482 1485 1487 1488 1493 1497 1500 1502 1504 1506 1508 1510 1511 1512 1514 1516 1517 1518 1519 1520 1521 1521 1522 1522 1523 1522 1521 1521 1521 1519
1502 1495 1493 1497 1505 1507 1503 1495 1496 1497 1498 1490 1484 1471 1484 1486 1488 1489 1493 1497 1500 1502 1505 1507 1509 1511 1512 1513 1513 1515 1515 1516 1517 1519 1520 1520 1520 1521 1521 1520 1520 1519 1518 1517
1507 1496 1492 1486 1491 1490 1496 1495 1494 1493 1495 1482 1478 1468 1481 1484 1486 1489 1492 1496 1500 1503 1506 1508 1510 1511 1512 1513 1514 1515 1515 1517 1518 1518 1519 1520 1520 1520 1519 1519 1518 1517 1515 1513
1507 1499 1495 1496 1491 1493 1489 1487 1491 1494 1486 1482 1468 1468 1468 1474 1481 1487 1492 1496 1500 1503 1506 1508 1510 1511 1512 1513 1514 1515 1516 1517 1518 1519 1519 1519 1519 1518 1518 1517 1516 1514 1512 1510
1506 1499 1498 1494 1490 1493 1492 1486 1483 1485 1482 1478 1473 1472 1474 1482 1484 1487 1491 1495 1499 1502 1505 1507 1509 1511 1513 1514 1515 1516 1517 1518 1518 1518 1518 1518 1518 1517 1516 1514 1513 1510 1508 1505
1502 1498 1496 1487 1490 1487 1481 1470 1473 1474 1475 1475 1477 1475 1477 1481 1486 1488 1491 1495 1498 1501 1504 1507 1509 1511 1513 1514 1515 1517 1517 1517 1517 1517 1517 1516 1515 1514 1512 1510 1507 1504 1501 1498
1498 1498 1495 1489 1487 1485 1466 1472 1471 1464 1470 1474 1478 1479 1481 1484 1487 1488 1490 1493 1496 1500 1503 1506 1508 1510 1512 1513 1514 1515 1515 1516 1516 1515 1515 1514 1512 1510 1507 1504 1501 1498 1495 1491
1500 1496 1493 1490 1479 1464 1458 1472 1472 1471 1466 1471 1473 1477 1482 1484 1486 1488 1490 1492 1495 1499 1502 1505 1507 1509 1510 1511 1512 1513 1514 1514 1514 1513 1512 1510 1508 1504 1502 1498 1495 1492 1487 1482
1503 1501 1495 1489 1489 1476 1466 1472 1474 1474 1467 1471 1472 1474 1480 1483 1481 1484 1489 1492 1495 1498 1501 1503 1506 1507 1509 1510 1511 1512 1512 1512 1511 1509 1507 1505 1502 1498 1494 1491 1487 1483 1479 1474
1496 1497 1493 1488 1483 1469 1468 1472 1474 1474 1469 1472 1473 1475 1479 1481 1484 1484 1488 1492 1495 1498 1500 1502 1503 1506 1507 1508 1509 1509 1509 1508 1507 1505 1502 1498 1495 1490 1486 1482 1479 1476 1471 1466
1481 1482 1484 1480 1480 1479 1470 1474 1473 1469 1471 1473 1475 1477 1480 1482 1483 1485 1489 1492 1495 1498 1500 1502 1504 1504 1506 1507 1507 1507 1505 1503 1501 1498 1495 1491 1487 1484 1480 1476 1471 1468 1464 1460
1485 1472 1468 1470 1463 1467 1468 1468 1468 1470 1471 1474 1475 1477 1480 1482 1484 1488 1491 1493 1495 1497 1500 1502 1503 1504 1504 1504 1503 1503 1500 1496 1494 1491 1488 1485 1481 1477 1473 1469 1464 1462 1459 1456
1474 1474 1474 1472 1459 1465 1467 1468 1469 1470 1471 1472 1474 1476 1478 1481 1484 1487 1489 1491 1493 1495 1498 1500 1501 1501 1501 1500 1500 1498 1494 1491 1487 1484 1482 1479 1474 1469 1466 1463 1461 1458 1456 1452
1466 1471 1467 1463 1462 1465 1465 1465 1466 1468 1470 1471 1473 1475 1477 1480 1483 1486 1489 1491 1492 1494 1495 1497 1498 1498 1497 1496 1494 1492 1488 1485 1481 1478 1475 1471 1468 1464 1460 1458 1456 1453 1450 1448
1464 1460 1461 1455 1458 1458 1458 1461 1463 1465 1468 1471 1472 1474 1477 1480 1482 1485 1488 1491 1491 1493 1494 1495 1494 1494 1493 1491 1488 1485 1482 1479 1474 1471 1469 1466 1463 1458 1454 1451 1448 1448 1443 1440
Wind_Speed
9 6 11 14 14 12 9 19 15 14 4 9 12 12 8 8 7 12 14 16 17 17 16 16 17 17 17 16 15 15 14 11 7 6 5 4 4 4 4 4 4 4 4 5
5 8 13 2 7 9 9 16 13 4 3 7 15 14 11 14 15 15 14 16 17 17 18 18 19 20 19 18 17 16 14 11 8 7 7 7 7 6 6 5 5 4 4 4
7 2 1 4 9 12 8 13 15 6 8 5 2 13 15 13 16 16 17 16 17 20 19 16 17 19 19 19 17 16 14 11 9 9 8 8 7 7 7 6 7 5 5 5
6 3 4 8 11 12 12 10 9 7 11 10 8 8 18 17 13 13 15 16 16 17 16 17 16 16 17 17 18 15 14 11 9 9 8 7 5 4 6 7 7 7 6 6
0 2 5 8 1 1 3 2 5 6 11 3 6 5 8 5 11 14 13 14 14 16 16 16 16 16 15 17 17 15 12 10 10 9 8 8 7 8 8 8 8 8 8 8
2 1 2 6 1 0 2 4 5 3 3 4 6 6 9 8 6 9 7 11 10 12 13 13 13 14 15 15 15 13 12 10 9 9 8 8 8 7 7 8 8 9 9 10
3 2 2 2 4 4 1 9 3 4 3 4 1 3 7 6 5 6 7 9 7 9 12 14 14 13 13 14 13 12 10 9 9 9 9 9 9 8 8 9 9 10 10 11
3 3 2 2 4 2 6 4 4 4 6 8 3 7 3 6 7 7 6 8 9 11 12 13 12 11 11 11 11 10 9 10 10 10 10 9 9 9 9 10 10 10 11 12
3 4 3 2 2 2 4 6 3 4 0 4 6 6 6 6 6 6 9 11 12 12 12 12 10 9 8 9 10 10 10 10 9 9 10 10 11 10 10 11 11 12 13 14
2 3 0 3 2 3 3 6 5 3 3 5 5 5 2 6 7 7 9 12 13 12 11 10 9 8 9 9 10 10 9 9 9 11 11 11 11 11 11 11 12 13 13 14
5 4 3 3 6 4 4 4 5 3 3 4 4 3 3 4 5 9 11 12 12 12 10 9 7 7 8 8 8 9 10 10 10 9 9 9 9 10 11 11 12 13 13 14
1 4 3 0 4 1 3 4 5 4 5 1 4 2 2 5 6 10 12 13 12 11 10 9 8 7 6 6 6 5 4 4 6 6 6 7 8 9 9 10 12 13 13 14
1 3 2 2 2 3 6 10 6 2 2 5 5 2 2 6 7 10 13 13 12 12 11 10 10 10 10 9 8 7 5 4 4 3 3 4 5 6 7 9 11 12 14 15
4 3 7 4 3 1 4 9 12 10 5 9 11 8 8 8 9 11 13 13 13 12 11 11 11 11 10 10 10 9 8 7 6 4 2 1 3 5 7 9 11 13 15 17
2 5 4 9 8 5 7 8 13 16 17 8 8 9 3 7 9 13 13 14 14 13 12 11 11 10 10 9 8 8 7 5 4 3 2 4 6 8 10 13 15 17 19 21
3 3 2 5 2 7 12 13 14 17 17 19 17 18 4 7 2 11 14 16 15 14 13 12 11 10 9 8 6 5 3 2 2 4 6 8 10 13 15 18 20 22 24 26
3 3 2 4 1 6 11 17 18 11 8 12 11 5 7 5 4 7 12 14 14 15 15 13 12 10 8 7 5 4 1 2 4 6 8 11 15 18 21 24 26 29 31 31
4 5 3 4 3 5 2 3 4 13 9 12 5 2 4 5 4 4 10 15 15 15 15 13 11 10 8 6 4 2 2 4 7 9 12 16 20 24 27 29 32 35 36 37
7 6 4 4 6 13 14 3 3 6 3 8 9 7 5 7 8 6 9 12 14 14 13 12 10 9 8 5 4 3 4 5 8 12 17 22 26 30 32 34 35 36 37 38
5 6 5 3 4 5 3 4 2 2 5 8 8 9 10 11 6 5 13 13 14 14 13 13 10 8 5 5 4 4 6 10 13 19 24 28 30 31 32 33 35 35 33 34
4 6 12 11 7 7 6 8 3 3 1 8 8 11 13 4 4 12 13 12 13 13 12 11 8 5 6 4 5 8 12 17 21 25 28 29 29 30 29 29 31 33 33 32
7 6 5 6 5 10 10 4 4 4 7 9 8 9 9 6 7 11 12 13 13 13 11 9 6 6 5 6 9 13 17 20 23 25 28 29 28 26 27 29 29 30 29 29
4 6 2 7 3 3 10 2 3 5 7 6 6 7 8 8 9 11 12 12 12 11 8 7 7 5 7 10 14 18 20 23 25 27 27 28 27 27 22 23 24 26 26 27
5 6 4 2 6 8 8 6 7 7 6 7 6 8 10 10 11 12 13 13 12 9 9 9 8 8 9 13 18 20 22 24 26 28 27 27 26 24 21 21 21 23 24 27
7 8 7 9 9 1 8 14 11 11 9 8 8 9 11 11 12 12 11 10 9 10 9 7 8 11 15 18 21 22 24 25 27 26 26 24 20 21 24 23 23 23 24 24
11 13 7 8 7 6 6 17 13 14 11 10 10 11 10 12 13 12 11 10 9 8 6 8 12 15 17 19 22 23 24 25 27 27 25 22 23 22 24 25 29 24 24 25
Wind_Direction
199 215 214 206 213 228 284 213 221 195 142 217 210 223 185 183 178 210 205 203 200 197 194 194 196 201 203 199 202 212 218 226 235 241 245 244 231 242 261 287 308 322 342 356
180 233 228 309 234 246 280 220 212 108 107 224 214 232 221 199 212 206 207 209 206 196 191 201 205 209 209 206 205 210 216 222 231 235 229 217 222 237 257 284 293 306 318 337
213 171 119 254 213 218 237 230 215 221 172 232 255 245 226 222 226 219 227 225 214 204 196 197 201 207 206 204 203 206 211 219 236 238 243 237 244 255 266 273 283 292 299 317
267 64 231 235 223 209 219 235 298 162 187 216 202 248 218 203 205 211 217 215 212 202 197 193 193 196 195 199 202 202 212 224 238 236 237 233 230 249 261 271 286 288 289 298
200 247 221 230 167 222 5 291 203 205 217 227 188 240 244 110 220 215 210 203 200 197 189 186 189 191 185 199 198 204 214 228 233 234 234 233 238 247 268 277 279 281 286 293
336 134 332 7 36 159 111 174 151 172 243 236 176 230 241 179 228 152 172 178 185 184 181 179 175 177 184 191 196 205 218 227 232 237 237 237 241 253 264 271 277 281 284 290
181 138 102 289 200 122 248 190 153 196 203 229 157 221 259 91 113 134 145 151 159 168 170 166 166 166 179 188 199 210 221 230 234 237 237 239 244 254 262 267 270 272 279 283
200 214 200 358 346 58 204 250 279 203 201 200 144 223 216 71 111 122 110 127 132 138 151 158 159 162 175 191 205 216 217 227 233 237 240 246 253 257 262 267 268 271 274 277
243 173 145 45 352 328 136 222 3 305 285 227 177 236 152 140 132 126 117 129 132 133 138 144 148 153 171 195 206 209 217 227 238 243 247 249 252 257 263 270 274 275 278 279
331 249 113 111 211 164 252 334 238 210 244 224 180 244 248 187 173 136 139 136 132 131 131 134 143 163 180 193 207 217 225 234 242 242 243 249 257 263 269 274 276 276 276 280
290 264 116 195 200 217 185 232 237 290 289 298 239 157 24 132 166 161 143 142 144 142 139 139 147 171 190 203 212 221 229 234 244 247 249 253 257 261 267 272 274 276 279 283
69 312 249 226 83 25 275 275 276 257 221 268 301 317 114 107 129 142 144 146 146 146 140 134 130 132 141 162 177 193 198 200 215 231 238 245 259 267 269 270 273 279 284 286
95 222 245 178 188 197 230 208 235 231 325 254 278 221 155 138 142 152 156 158 155 148 138 128 118 109 104 109 116 123 139 163 178 191 223 248 266 273 277 285 292 294 294 295
331 280 259 295 12 73 203 208 214 211 218 241 232 263 170 174 170 167 164 163 157 151 142 134 124 116 112 107 104 103 102 102 104 103 91 34 328 309 308 309 306 304 300 297
258 278 310 292 284 239 258 227 206 211 226 232 242 254 313 172 184 179 169 163 160 159 154 147 137 127 118 114 112 109 105 96 82 60 20 344 323 319 316 313 312 310 308 306
189 270 307 275 242 251 261 250 236 228 238 246 258 267 232 143 101 164 176 173 173 169 160 151 143 137 130 127 130 120 101 79 45 11 350 335 329 325 319 316 312 310 307 305
232 252 246 264 260 281 266 244 230 227 231 242 237 292 123 131 178 193 183 183 178 172 166 160 153 148 142 143 131 124 124 356 348 341 332 329 326 323 320 317 314 312 311 308
256 237 276 289 298 250 66 76 343 231 232 229 233 149 102 110 121 163 182 180 176 172 167 163 161 157 161 164 170 206 294 323 322 328 325 323 321 319 317 314 312 310 308 305
224 250 260 250 242 292 278 192 186 194 233 212 225 189 165 145 137 129 164 172 173 171 168 166 165 164 171 183 228 267 307 311 315 318 318 319 317 314 312 309 308 307 305 303
228 251 245 169 256 263 65 131 148 176 245 167 186 177 172 160 194 127 166 163 164 164 164 162 162 165 170 235 263 297 311 312 313 313 315 312 311 310 310 309 308 308 304 301
177 209 226 238 253 279 112 141 158 212 80 148 156 156 156 170 58 139 155 154 158 159 157 164 174 173 201 250 278 300 308 309 309 311 311 313 313 313 311 307 304 305 304 304
196 195 202 212 234 256 144 129 221 97 120 145 148 159 159 142 142 149 153 153 152 151 165 176 191 209 238 271 294 302 306 307 310 312 314 315 313 307 305 306 307 308 309 307
241 229 269 222 237 98 187 263 172 154 158 160 159 176 175 162 157 156 154 151 154 176 192 207 211 232 273 289 299 306 311 313 314 314 313 311 309 308 307 307 311 309 310 308
223 223 240 319 221 223 209 198 186 180 168 176 176 185 178 173 168 162 157 167 179 193 194 204 222 256 283 299 308 312 312 314 313 312 311 311 311 312 312 309 308 306 307 307
253 157 234 251 268 292 231 215 201 186 180 183 175 175 172 169 164 164 166 167 173 185 200 226 266 286 299 307 311 312 312 313 312 311 311 312 310 309 310 308 306 304 301 303
207 229 226 254 320 229 294 211 192 191 196 186 174 156 154 160 165 165 158 167 179 200 236 270 289 301 307 308 310 311 312 310 312 311 312 310 310 309 311 308 305 303 303 309